Time,B instrument,Bx,By,Bz,sigma B,Ion instrument,Status,Tp_par,Tp_perp,carrot,r_sun,clat,clong,earth_he_angle,n_p,vp_x,vp_y,vp_z,vth_p_par,vth_p_perp
1974-12-17 00:00:10,1,7.30357,-1.19464,8.19464,1.51861,1,1,171433.0,141581.0,1622,0.98120213,-0.85295582,121.53442,357.86646,7.30816,476.522,1.81608,58.4703,53.1991,48.3459
1974-12-17 00:00:20,1,7.10141,-0.730282,8.16972,1.64941,1,1,170070.0,141728.0,1622,0.98120213,-0.85295582,121.53247,357.86646,7.29473,476.571,1.80551,58.503,52.9872,48.371
1974-12-17 00:00:30,1,6.71866,0.157463,8.15299,2.01306,1,1,331465.0,152723.0,1622,0.98120213,-0.85295582,121.53052,357.86646,9.65454,469.967,17.5103,54.5882,73.9736,50.2123
1974-12-17 00:01:11,1,5.94,3.94,7.22,1.27194,1,1,220871.0,137547.0,1622,0.98120135,-0.85301673,121.52441,357.86621,7.72951,476.665,26.6468,66.796,60.3847,47.6522
1974-12-17 00:01:51,1,4.32576,6.70909,4.93182,2.2539,1,1,323065.0,120117.0,1622,0.98120135,-0.85301673,121.51855,357.86621,8.50605,474.62,47.6295,54.7833,73.0303,44.5307
1974-12-17 00:02:32,1,4.59645,6.24326,5.04184,1.04433,1,1,266875.0,126175.0,1622,0.98120064,-0.85307765,121.51245,357.86597,7.62685,474.785,34.9218,61.8963,66.3761,45.6399
1974-12-17 00:03:12,-1,nan,nan,nan,nan,1,-3,nan,nan,1622,0.98119986,-0.85313857,121.50635,357.86572,nan,474.044,43.8764,54.8228,nan,nan
1974-12-17 00:03:53,1,5.60956,-1.95368,7.30809,1.33806,1,1,401427.0,133580.0,1622,0.98119986,-0.85313857,121.49854,357.86572,8.94513,471.575,3.44327,60.414,81.4069,46.96
1974-12-17 00:04:33,1,5.55672,-3.1194,7.7209,1.19514,1,1,412156.0,134182.0,1622,0.98119915,-0.85319948,121.49243,357.86548,9.51046,467.372,11.7801,60.2286,82.4876,47.0658
1974-12-17 00:05:14,1,6.35845,-2.6993,6.34366,1.18114,1,1,362068.0,141533.0,1622,0.98119837,-0.8532604,121.48633,357.86523,9.31967,461.32,7.70066,63.8995,77.3131,48.3377
1974-12-17 00:05:54,1,5.40296,-4.27556,5.50074,0.91197,1,1,474504.0,136388.0,1622,0.98119837,-0.8532604,121.48047,357.86523,9.12729,470.951,11.3767,61.6323,88.507,47.4511
1974-12-17 00:06:35,1,5.77902,-3.87832,4.79231,0.857714,1,1,315921.0,127463.0,1622,0.98119766,-0.85332131,121.47437,357.86499,8.73461,471.76,-1.8627,58.7047,72.2183,45.8722
1974-12-17 00:07:15,1,5.65149,-4.26119,4.24776,1.09363,1,1,413470.0,182568.0,1622,0.98119688,-0.85338223,121.46826,357.86475,10.4412,471.144,4.55546,51.0096,82.619,54.8998
1974-12-17 00:07:56,1,5.15299,-3.66716,6.37761,0.821548,1,1,312889.0,159699.0,1622,0.98119688,-0.85338223,121.4624,357.86475,9.52527,476.003,3.15363,50.1643,71.8709,51.3463
1974-12-17 00:08:36,1,6.24853,-4.44632,6.32353,1.25142,1,1,462911.0,174691.0,1622,0.98119617,-0.85344315,121.45435,357.8645,10.148,474.543,6.89182,56.1297,87.4192,53.7024
1974-12-17 00:09:17,1,6.18099,-4.49155,6.22183,1.76394,1,1,303790.0,118583.0,1622,0.98119545,-0.85350406,121.44824,357.86426,7.94443,479.242,-1.27104,59.1735,70.8181,44.2455
1974-12-17 00:09:57,1,6.52074,-4.75185,6.86889,0.689972,1,1,435242.0,141747.0,1622,0.98119545,-0.85350406,121.44238,357.86426,9.34779,473.451,8.48715,56.1542,84.7663,48.3743
1974-12-17 00:10:38,1,6.33147,-5.25734,5.83566,0.686056,1,1,308551.0,121109.0,1622,0.98119467,-0.85356498,121.43652,357.86426,8.16251,480.709,3.94794,65.854,71.371,44.7143
1974-12-17 00:11:18,1,6.65481,-5.0563,6.22444,0.538832,1,1,377582.0,140819.0,1622,0.98119396,-0.85362589,121.43042,357.86401,9.58108,480.729,10.8855,53.4637,78.9521,48.2157
1974-12-17 00:11:59,1,6.14859,-4.77042,5.87324,0.565491,1,1,340511.0,121151.0,1622,0.98119396,-0.85362589,121.42456,357.86401,8.46371,484.041,1.28728,54.3565,74.9762,44.722
1974-12-17 00:12:39,1,5.41333,-5.37407,5.03481,1.0222,1,1,391914.0,146649.0,1622,0.98119318,-0.85368681,121.4165,357.86377,9.58556,474.892,6.97649,49.0947,80.4365,49.2037
1974-12-17 00:13:20,1,6.45944,-5.26573,3.97692,0.692622,1,1,349214.0,128746.0,1622,0.98119247,-0.85374773,121.4104,357.86353,7.86252,474.645,-0.863063,48.2844,75.9283,46.1025
1974-12-17 00:14:00,1,6.39254,-5.08209,4.12537,0.572526,1,1,451124.0,161196.0,1622,0.98119169,-0.85380858,121.4043,357.86328,9.85128,473.81,3.58119,37.7377,86.299,51.5864
1974-12-17 00:14:41,1,6.52908,-6.06525,3.7227,0.845253,1,1,324558.0,114327.0,1622,0.98119169,-0.85380864,121.39844,357.86328,7.01919,486.143,-3.42886,41.8669,73.1988,43.4443
1974-12-17 00:15:21,1,6.46148,-4.42148,4.57556,2.32767,1,1,408978.0,151372.0,1622,0.98119098,-0.85386956,121.39233,357.86304,9.62229,477.417,-3.09892,37.3647,82.1689,49.9897
1974-12-17 00:16:02,1,5.44336,-1.72727,8.06993,1.59518,1,1,174261.0,131254.0,1622,0.9811902,-0.85393041,121.38623,357.86279,6.98536,493.212,-9.51104,44.4011,53.6362,46.5494
1974-12-17 00:16:42,1,6.63028,-4.17394,6.31901,1.94098,1,1,407927.0,155302.0,1622,0.9811902,-0.85393047,121.38037,357.86279,9.03235,476.834,2.56412,47.7085,82.0634,50.6345
1974-12-17 00:17:23,1,7.31986,-5.24681,5.28723,0.91222,1,1,330173.0,97300.1,1622,0.98118949,-0.85399139,121.37231,357.86255,7.79204,492.492,-5.74026,43.215,73.8293,40.0788
1974-12-17 00:18:03,1,7.37552,-6.80909,3.82517,1.08025,1,1,443192.0,131333.0,1622,0.98118871,-0.85405225,121.36621,357.8623,9.73658,484.708,-8.33701,41.4113,85.5369,46.5635
1974-12-17 00:18:44,1,6.21197,-7.49155,4.12183,1.21586,1,1,281146.0,99881.4,1622,0.98118871,-0.85405231,121.36035,357.8623,7.37971,485.819,-9.25162,38.3356,68.1277,40.6069
1974-12-17 00:19:24,1,5.38296,-8.73852,3.11185,1.41094,1,1,383142.0,121059.0,1622,0.981188,-0.85411322,121.35425,357.86206,9.05399,475.331,-12.2142,41.4349,79.5312,44.7051
1974-12-17 00:20:05,1,4.46765,-9.45441,4.35735,0.824298,1,1,276025.0,104335.0,1622,0.98118728,-0.85417408,121.34839,357.86206,8.07602,479.362,-13.0095,44.6449,67.5044,41.5024
1974-12-17 00:20:45,1,4.36567,-10.0396,3.5097,1.13031,1,1,320762.0,103320.0,1622,0.98118728,-0.85417414,121.34253,357.86206,8.14681,474.78,-17.2796,42.6438,72.7695,41.3
1974-12-17 00:21:26,1,4.26,-10.4904,3.0963,0.897691,1,1,298860.0,128163.0,1622,0.98118651,-0.85423505,121.33447,357.86182,8.50434,479.1,-15.1554,42.4511,70.2412,45.9981
1974-12-17 00:22:06,1,4.37971,-10.5971,2.2087,0.593513,1,1,356972.0,120082.0,1622,0.98118579,-0.85429591,121.32837,357.86157,9.26583,474.902,-18.237,40.7821,76.767,44.5243
1974-12-17 00:22:47,1,4.51176,-9.75,1.72647,1.35838,1,1,243470.0,113744.0,1622,0.98118579,-0.85429597,121.32251,357.86157,7.6107,476.978,-13.6948,39.2783,63.3987,43.3334
1974-12-17 00:23:27,1,5.28657,-10.8052,2.46791,1.00571,1,1,339088.0,132625.0,1622,0.98118502,-0.85435688,121.31641,357.86133,8.59064,473.581,-10.5669,31.8977,74.8194,46.7919
1974-12-17 00:24:08,1,4.94889,-10.5941,2.28741,1.25114,1,1,190010.0,108887.0,1622,0.9811843,-0.85441774,121.3103,357.86108,7.45717,477.895,-13.4015,38.0868,56.0074,42.3981
1974-12-17 00:24:48,1,4.5625,-11.0691,1.09853,0.928427,1,1,314606.0,127245.0,1622,0.9811843,-0.8544178,121.30444,357.86108,8.24776,475.355,-8.93182,41.5442,72.0678,45.833
1974-12-17 00:25:29,1,5.84851,-9.31642,3.15075,0.686074,1,1,193406.0,104202.0,1622,0.98118353,-0.85447872,121.29639,357.86084,7.42481,478.459,-9.70676,31.5007,56.5057,41.4759
1974-12-17 00:26:09,1,5.36889,-8.71259,3.40444,1.50268,1,1,286355.0,120988.0,1622,0.98118281,-0.85453957,121.29028,357.8606,8.75989,473.867,-11.8385,38.4535,68.7559,44.6919
1974-12-17 00:26:50,1,6.24338,-8.92721,4.11618,1.14175,1,1,240629.0,121349.0,1622,0.98118281,-0.85453963,121.28442,357.8606,8.15896,477.153,-11.1714,38.4502,63.0277,44.7585
1974-12-17 00:27:30,1,7.12206,-5.59118,7.02647,1.38066,1,1,252267.0,136404.0,1622,0.98118204,-0.85460055,121.27832,357.86035,9.31087,481.27,-11.1058,40.1981,64.5339,47.4538
1974-12-17 00:28:11,1,6.89098,-5.06466,6.32782,1.25399,1,1,215070.0,105932.0,1622,0.98118132,-0.85466141,121.27222,357.86011,7.33717,484.446,3.70668,50.1056,59.5865,41.8188
1974-12-17 00:28:51,1,4.83582,-0.127612,2.71642,1.08731,1,1,244465.0,135990.0,1622,0.98118132,-0.85466146,121.26636,357.86011,8.51828,483.826,9.88504,44.734,63.5282,47.3818
1974-12-17 00:29:32,1,5.3,0.692308,3.54476,0.833122,1,1,275289.0,190048.0,1622,0.98118061,-0.85472238,121.2583,357.85986,8.20538,481.299,28.5224,49.6485,67.4143,56.0131
1974-12-17 00:30:12,1,5.08592,0.88169,3.87324,1.0835,1,1,387054.0,115684.0,1622,0.98117983,-0.85478324,121.25244,357.85986,6.748,518.066,-18.2326,50.2474,79.9362,43.7014
1974-12-17 00:30:22,1,5.22183,1.05915,3.76056,1.14494,1,1,362552.0,107411.0,1622,0.98117983,-0.85478324,121.25244,357.85986,7.01547,500.706,7.71451,48.4268,77.3648,42.1097
1974-12-17 00:30:32,1,5.41259,1.17413,3.62238,1.13852,1,1,369679.0,106320.0,1622,0.98117983,-0.8547833,121.25049,357.85986,7.02697,500.865,7.95967,48.4526,78.1214,41.8953
1974-12-17 00:30:52,1,5.63099,1.89577,2.8507,1.13142,1,1,352770.0,138333.0,1622,0.98117983,-0.8547833,121.24658,357.85986,7.69487,503.483,4.08989,53.1911,76.3139,47.7882
1974-12-17 00:31:33,1,5.00519,2.27407,1.26222,2.43232,1,1,392206.0,153469.0,1622,0.98117912,-0.85484421,121.24048,357.85962,8.21655,507.283,11.5215,50.148,80.4665,50.3348
1974-12-17 00:32:14,1,5.57817,0.837324,1.27113,0.637591,1,1,413875.0,190595.0,1622,0.98117834,-0.85490507,121.23438,357.85938,9.28634,508.892,16.8542,49.5668,82.6595,56.0937
1974-12-17 00:32:54,1,5.89225,1.08803,0.0176056,1.44119,1,1,299065.0,178925.0,1622,0.98117834,-0.85490513,121.22852,357.85938,8.96266,508.148,11.7545,47.9512,70.2653,54.3492
1974-12-17 00:33:35,-1,nan,nan,nan,nan,1,4,nan,nan,1622,0.98117763,-0.85496604,121.22241,357.85913,nan,nan,nan,nan,nan,nan
1974-12-17 00:34:15,1,6.83926,1.55481,-0.274815,1.8043,1,1,334167.0,148122.0,1622,0.98117685,-0.8550269,121.21436,357.85889,8.43454,517.566,11.0007,44.7231,74.2745,49.4502
1974-12-17 00:34:56,1,3.88592,2.77183,-0.376761,1.76893,1,1,236941.0,235897.0,1622,0.98117685,-0.85502696,121.2085,357.85889,9.76245,505.634,10.1373,47.978,62.5429,62.4049
1974-12-17 00:35:36,1,4.55963,2.43761,-0.244954,1.35967,1,1,214198.0,169800.0,1622,0.98117614,-0.85508788,121.20239,357.85864,8.02266,504.831,4.07223,46.5309,59.4656,52.9453
1974-12-17 00:36:17,1,3.8844,3.37234,-0.951773,1.45095,1,1,335867.0,188041.0,1622,0.98117536,-0.85514873,121.19629,357.8584,8.8622,505.689,6.86438,46.6143,74.4632,55.7166
1974-12-17 00:36:57,1,5.44336,5.08671,-0.581818,1.8391,1,1,244187.0,166068.0,1622,0.98117536,-0.85514879,121.19043,357.8584,7.75644,506.055,7.93069,45.0774,63.4921,52.3601
1974-12-17 00:37:38,1,6.89014,5.21268,0.0253521,0.713808,1,1,333479.0,117734.0,1622,0.98117465,-0.85520971,121.18433,357.85815,8.2967,506.447,12.1907,41.6457,74.198,44.0868
1974-12-17 00:38:18,1,7.23451,4.97042,0.360563,0.672371,1,1,327986.0,132395.0,1622,0.98117387,-0.85527056,121.17627,357.85791,8.07727,507.813,13.3403,43.529,73.5844,46.7514
1974-12-17 00:38:59,1,6.01958,5.52587,0.262937,0.603678,1,1,383074.0,128248.0,1622,0.98117387,-0.85527062,121.17041,357.85791,8.36723,505.592,18.7326,41.7935,79.5242,46.0132
1974-12-17 00:39:39,-1,nan,nan,nan,nan,1,-3,nan,nan,1622,0.98117316,-0.85533154,121.16431,357.85767,nan,504.6,7.50654,44.044,nan,nan
1974-12-17 00:40:20,1,5.38723,-1.53262,-1.58652,1.54257,1,1,255382.0,166373.0,1622,0.98117244,-0.8553924,121.15845,357.85767,8.05485,510.429,12.2467,44.1084,64.9312,52.4082
1974-12-17 00:41:00,1,4.57958,-3.58944,-0.696479,0.784682,1,1,269234.0,177616.0,1622,0.98117167,-0.85545331,121.15234,357.85742,7.99002,508.368,14.6016,43.0779,66.6689,54.15
1974-12-17 00:41:41,1,5.10352,-1.93099,-0.341549,0.58992,1,1,293290.0,189374.0,1622,0.98117167,-0.85545337,121.14648,357.85742,7.92979,510.09,5.22935,38.7619,69.5836,55.9136
1974-12-17 00:42:21,1,6.61901,-1.74085,-0.911268,1.11439,1,1,282697.0,165455.0,1622,0.98117095,-0.85551423,121.14038,357.85718,7.43054,510.223,9.02861,37.6154,68.3154,52.2634
1974-12-17 00:43:02,1,6.29021,-2.57413,0.618182,1.06381,1,1,274137.0,216762.0,1622,0.98117018,-0.85557514,121.13232,357.85693,8.32495,512.191,1.70865,35.2442,67.2731,59.8204
1974-12-17 00:43:42,1,6.97203,-3.27902,0.55035,1.59541,1,1,254766.0,214758.0,1622,0.98117018,-0.85557514,121.12646,357.85693,8.25602,511.071,5.56027,36.3419,64.8528,59.5433
1974-12-17 00:44:23,1,6.6662,-2.65634,1.07042,0.663871,1,1,307104.0,183041.0,1622,0.98116946,-0.85563606,121.12036,357.85669,8.4044,515.641,-0.42363,32.5235,71.2034,54.9708
1974-12-17 00:45:03,1,8.87958,-2.27958,-0.108451,1.22937,1,1,292376.0,208409.0,1622,0.98116869,-0.85569698,121.11426,357.85645,8.46521,512.528,6.31032,36.7268,69.475,58.6565
1974-12-17 00:45:44,1,8.88392,-2.04056,-0.491608,0.716283,1,1,387916.0,160194.0,1622,0.98116869,-0.85569698,121.1084,357.85645,9.30486,512.498,-1.61305,31.1002,80.0252,51.4258
1974-12-17 00:46:24,1,7.44085,-0.220423,-1.24296,1.12551,1,1,335976.0,160169.0,1622,0.98116797,-0.85575789,121.10229,357.8562,9.19574,513.944,3.5053,30.0981,74.4752,51.4217
1974-12-17 00:47:05,1,7.85603,-0.224823,-1.38794,0.997941,1,1,261634.0,183113.0,1622,0.9811672,-0.85581881,121.09424,357.85596,7.8481,509.713,0.412798,33.7849,65.7212,54.9816
1974-12-17 00:47:45,1,9.80296,1.31926,-0.588148,0.958586,1,1,335509.0,178285.0,1622,0.9811672,-0.85581881,121.08838,357.85596,8.88336,512.717,4.2323,31.087,74.4235,54.2519
1974-12-17 00:48:26,1,9.45315,2.81049,0.465035,0.695618,1,1,394826.0,145582.0,1622,0.98116648,-0.85587972,121.08228,357.85571,9.01246,506.139,2.34785,28.1427,80.7348,49.0243
1974-12-17 00:49:06,1,8.69104,1.76642,-2.39478,1.60567,1,1,319301.0,128581.0,1622,0.98116577,-0.85594064,121.07617,357.85547,8.74269,506.382,2.67518,32.8503,72.6036,46.073
1974-12-17 00:49:47,1,9.19929,1.71135,-0.468085,1.53341,1,1,280544.0,139940.0,1622,0.98116577,-0.85594064,121.07031,357.85547,7.81442,513.457,-1.13044,30.8101,68.0547,48.0649
1974-12-17 00:50:27,1,8.56713,3.88182,2.72168,1.91405,1,1,225450.0,147030.0,1622,0.98116499,-0.85600156,121.06445,357.85547,7.89053,502.219,3.28855,28.6642,61.0075,49.2676
1974-12-17 00:51:08,1,8.34085,3.41479,1.67042,1.24266,1,1,379082.0,124365.0,1622,0.98116428,-0.85606247,121.0564,357.85522,8.1673,510.233,-0.119602,27.5878,79.1087,45.3114
1974-12-17 00:51:48,1,8.94776,0.0358209,1.78955,0.924734,1,1,279295.0,137507.0,1622,0.98116428,-0.85606247,121.05054,357.85522,7.43927,512.458,5.80494,35.0117,67.903,47.6454
1974-12-17 00:52:29,1,8.68531,-1.5021,0.273427,1.32772,1,1,311392.0,172188.0,1622,0.9811635,-0.85612339,121.04443,357.85498,8.26106,514.712,5.71368,30.3838,71.6987,53.3163
1974-12-17 00:53:09,1,8.86119,-0.699254,1.0306,1.31397,1,1,280840.0,151266.0,1622,0.98116279,-0.8561843,121.03833,357.85474,7.71566,512.236,8.95378,32.1567,68.0907,49.9722
1974-12-17 00:53:50,1,8.81197,1.0993,-0.709155,1.32111,1,1,350178.0,162768.0,1622,0.98116279,-0.8561843,121.03247,357.85474,7.81924,516.514,0.128846,28.0156,76.033,51.8374
1974-12-17 00:54:30,1,8.67746,1.87254,-1.1831,1.57406,1,1,305013.0,130475.0,1622,0.98116201,-0.85624522,121.02637,357.85449,7.50513,513.689,4.53176,31.3594,70.9606,46.4111
1974-12-17 00:55:11,1,5.66224,3.64685,-2.36364,3.04466,1,1,281955.0,159364.0,1622,0.9811613,-0.85630614,121.01831,357.85425,7.59419,508.084,5.44039,28.4496,68.2257,51.2924
1974-12-17 00:55:51,-1,nan,nan,nan,nan,1,-3,nan,nan,1622,0.9811613,-0.85630614,121.01245,357.85425,nan,503.147,14.9384,20.7326,nan,nan
1974-12-17 00:56:32,1,7.75915,-3.06408,2.09789,3.13369,1,1,168490.0,198929.0,1622,0.98116052,-0.85636705,121.00635,357.854,8.1268,508.018,6.64832,20.5864,52.7406,57.3069
1974-12-17 00:57:12,1,6.57273,-5.16573,3.08601,0.822829,1,1,262098.0,108559.0,1622,0.98115981,-0.85642797,121.00024,357.85376,7.24602,510.419,-1.14199,33.4661,65.7794,42.3341
1974-12-17 00:57:53,1,8.23357,-4.52657,2.0972,0.963301,1,1,309581.0,126968.0,1622,0.98115981,-0.85642797,120.99438,357.85376,8.08098,511.058,-2.7836,33.0996,71.4899,45.783
1974-12-17 00:58:33,1,5.92535,-7.13451,2.8662,2.47777,1,1,236998.0,113648.0,1622,0.98115903,-0.85648888,120.98828,357.85352,6.68239,517.443,-3.41321,30.0611,62.5505,43.315
1974-12-17 00:59:14,1,9.79859,-3.40282,1.22394,1.81844,1,1,191735.0,141660.0,1622,0.98115832,-0.8565498,120.98218,357.85327,7.66306,516.902,-10.0311,31.1495,56.2612,48.3595
1974-12-17 00:59:54,1,9.37025,-2.19504,0.672727,1.72418,1,1,247731.0,118832.0,1622,0.98115832,-0.8565498,120.97437,357.85327,8.24526,517.552,-9.09864,31.7742,63.9511,44.2919
1974-12-17 01:00:35,1,9.61338,-1.43028,1.30141,1.99179,1,1,181650.0,109538.0,1622,0.9811576,-0.85661072,120.96851,357.85327,6.83025,510.293,-11.6518,36.8172,54.7616,42.5245
1974-12-17 01:01:15,1,11.0127,-1.87324,1.5831,0.441946,1,1,163031.0,109175.0,1622,0.98115683,-0.85667163,120.9624,357.85303,6.87575,508.824,-3.73325,32.9201,51.8792,42.4541
1974-12-17 01:01:56,1,10.8406,-1.85245,1.31958,0.896873,1,1,174314.0,112232.0,1622,0.98115683,-0.85667163,120.95654,357.85303,7.49342,509.66,-6.24682,31.0294,53.6444,43.0444
1974-12-17 01:02:36,1,10.2077,-0.891549,1.11831,1.12414,1,1,134732.0,109001.0,1622,0.98115605,-0.85673255,120.95044,357.85278,6.82848,508.416,-6.26332,27.7384,47.1621,42.4202
1974-12-17 01:03:17,1,9.55845,-0.244366,-0.0929577,0.807746,1,1,203298.0,107933.0,1622,0.98115534,-0.85679346,120.94434,357.85254,7.43539,511.984,-7.26493,22.1746,57.9328,42.2119
1974-12-17 01:03:57,1,8.83427,-0.458741,-1.45105,1.06267,1,1,211873.0,115190.0,1622,0.98115534,-0.85679352,120.93652,357.85254,7.37774,515.167,-4.58097,27.4825,59.1419,43.6079
1974-12-17 01:04:38,1,7.67065,0.992391,-1.68152,2.99945,1,1,267375.0,118092.0,1622,0.98115456,-0.85685438,120.93042,357.85229,7.30904,513.143,0.687228,30.2861,66.4382,44.1538
1974-12-17 01:05:18,1,4.19375,4.7375,-3.77083,1.56265,1,1,393054.0,133669.0,1622,0.98115385,-0.8569153,120.92432,357.85205,7.44511,515.249,-5.17857,25.452,80.5535,46.9757
1974-12-17 01:05:59,1,5.79225,3.54014,-4.88521,2.42313,1,1,322526.0,123453.0,1622,0.98115385,-0.85691535,120.91846,357.85205,6.1914,519.206,-4.47479,26.6416,72.9693,45.1449
1974-12-17 01:06:39,1,7.75035,3.63566,-3.99301,2.51982,1,1,300049.0,165023.0,1622,0.98115307,-0.85697621,120.91235,357.85181,7.62052,518.984,-2.27566,23.6579,70.3808,52.1951
1974-12-17 01:07:20,1,6.32,-1.828,-5.164,2.43946,1,1,211642.0,139304.0,1622,0.98115236,-0.85703713,120.90625,357.85156,7.4626,515.079,-3.60216,28.0588,59.1098,47.9557
1974-12-17 01:08:00,1,6.97699,-1.3177,-4.32566,2.15509,1,1,261296.0,139906.0,1622,0.98115158,-0.85709804,120.89819,357.85132,7.23568,517.387,0.87485,31.3134,65.6786,48.0591
1974-12-17 01:08:41,1,6.17343,0.188811,-3.60629,3.90082,1,1,315825.0,137268.0,1622,0.98115158,-0.85709804,120.89233,357.85132,7.81285,520.996,-1.12507,27.9343,72.2073,47.6038
1974-12-17 01:09:21,1,4.66084,3.96084,-4.51469,1.44595,1,1,354019.0,133758.0,1622,0.98115087,-0.85715896,120.88623,357.85107,7.21053,520.064,-3.1625,23.2833,76.4489,46.9914
1974-12-17 01:10:02,1,3.96267,4.43,-4.74533,2.42459,1,1,284683.0,103577.0,1622,0.98115009,-0.85721987,120.88037,357.85107,6.25966,522.735,-7.09355,26.7871,68.5549,41.3512
1974-12-17 01:10:42,1,1.9662,6.34718,-3.8993,0.645251,1,1,353983.0,128318.0,1622,0.98115009,-0.85721987,120.87451,357.85107,7.08126,515.648,-10.8543,25.7763,76.445,46.0258
1974-12-17 01:11:23,1,1.63427,6.68881,-4.01678,0.47426,1,1,267439.0,105447.0,1622,0.98114938,-0.85728079,120.86841,357.85083,6.54756,526.802,-2.5359,20.1748,66.4463,41.7229
1974-12-17 01:12:03,1,0.555319,6.70922,-4.33262,0.873553,1,1,353939.0,121005.0,1622,0.9811486,-0.85734171,120.8623,357.85059,7.67462,522.687,-7.56679,22.0166,76.4402,44.6951
1974-12-17 01:12:44,1,0.391275,8.00403,-4.87315,1.30905,1,1,288190.0,110134.0,1622,0.9811486,-0.85734171,120.85449,357.85059,7.3832,521.629,-8.16855,22.8476,68.9759,42.6401
1974-12-17 01:13:24,-1,nan,nan,nan,nan,1,-3,nan,nan,1622,0.98114789,-0.85740262,120.84839,357.85034,nan,532.561,-17.091,19.2929,nan,nan
1974-12-17 01:14:05,1,9.06,-3.95133,-1.18,0.604509,1,1,233519.0,116792.0,1622,0.98114711,-0.85746354,120.84229,357.8501,6.76161,531.831,-8.05575,16.2951,62.0897,43.9102
1974-12-17 01:14:45,1,8.32887,-4.12042,-1.0507,0.457006,1,1,278359.0,117238.0,1622,0.98114711,-0.85746354,120.83643,357.8501,7.09932,526.539,-12.0444,18.2192,67.7893,43.9939
1974-12-17 01:15:26,1,8.05852,-4.77852,-1.06444,0.578534,1,1,233320.0,121146.0,1622,0.9811464,-0.85752445,120.83032,357.84985,7.05148,534.809,-19.2312,16.295,62.0632,44.7211
1974-12-17 01:16:06,1,7.6951,-4.6021,-1.63077,0.750387,1,1,288969.0,128313.0,1622,0.98114562,-0.85758537,120.82422,357.84961,7.30004,535.786,-11.8728,14.4244,69.0691,46.025
1974-12-17 01:16:47,1,7.62267,-5.04267,-1.038,0.70353,1,1,251588.0,119927.0,1622,0.98114562,-0.85758543,120.81641,357.84961,6.91017,530.911,-16.0858,18.906,64.447,44.4956
1974-12-17 01:17:27,1,7.77746,-4.93099,-2.27042,1.27657,1,1,287526.0,121935.0,1622,0.98114485,-0.85764629,120.8103,357.84937,7.08734,528.982,-10.2896,15.2721,68.8964,44.8665
1974-12-17 01:18:08,1,6.76294,-2.75175,-4.41818,2.84492,1,1,220410.0,123894.0,1622,0.98114413,-0.8577072,120.8042,357.84912,6.66859,528.696,-9.97824,17.2356,60.3217,45.2255
1974-12-17 01:18:48,1,6.77552,-4.52098,-3.15455,2.32011,1,1,258223.0,131868.0,1622,0.98114413,-0.85770726,120.79834,357.84912,7.48249,531.567,-10.0062,21.8961,65.2913,46.6581
1974-12-17 01:19:29,1,7.30467,-4.06333,-3.99333,0.812356,1,1,333790.0,127069.0,1622,0.98114336,-0.85776812,120.79224,357.84888,7.53085,528.058,-15.1102,16.9991,74.2326,45.8013
1974-12-17 01:20:09,1,7.06479,-4.13803,-3.88803,0.805912,1,1,289547.0,119195.0,1622,0.98114264,-0.85782903,120.78638,357.84888,7.19258,533.178,-10.5927,17.727,69.1381,44.3595
1974-12-17 01:20:50,1,5.55,-3.51,-3.16133,0.702594,1,1,320399.0,100951.0,1622,0.98114264,-0.85782909,120.77856,357.84888,6.91539,527.236,-14.5187,19.8794,72.7283,40.8238
1974-12-17 01:21:30,1,5.56338,-3.59155,-3.22676,0.518243,1,1,332034.0,112632.0,1622,0.98114187,-0.85788995,120.77246,357.84863,6.28513,532.268,-9.33745,21.7212,74.0371,43.1209
1974-12-17 01:22:11,1,5.9331,-3.90211,-3.41268,0.660564,1,1,322515.0,120057.0,1622,0.98114115,-0.85795087,120.76636,357.84839,6.31269,533.982,-15.0421,16.7213,72.9681,44.5197
1974-12-17 01:22:51,1,6.2993,-3.63916,-2.94196,0.707596,1,1,300491.0,109804.0,1622,0.98114115,-0.85795093,120.7605,357.84839,6.31404,535.512,-10.6086,21.7473,70.4326,42.5761
1974-12-17 01:23:32,1,6.38592,-3.8007,-2.66831,0.602513,1,1,299916.0,118278.0,1622,0.98114038,-0.85801178,120.75439,357.84814,6.01916,531.429,-16.5677,16.9696,70.3652,44.1885
1974-12-17 01:24:12,1,6.0338,-4.02254,-2.3,0.664522,1,1,295066.0,119558.0,1622,0.98113966,-0.8580727,120.74829,357.8479,6.79865,533.239,-13.2851,18.9634,69.794,44.4271
1974-12-17 01:24:53,1,6.34901,-4.22914,-2.30066,0.742464,1,1,271089.0,118189.0,1622,0.98113966,-0.85807276,120.74048,357.8479,6.44033,533.175,-17.2301,19.9835,66.8981,44.1719
1974-12-17 01:25:33,1,7.13803,-4.53732,-2.70704,0.460249,1,1,307208.0,107949.0,1622,0.98113889,-0.85813361,120.73438,357.84766,5.87459,532.483,-12.1561,18.6555,71.2154,42.215
1974-12-17 01:26:14,1,6.77817,-4.63028,-2.16972,1.59264,1,1,285410.0,128881.0,1622,0.98113817,-0.85819453,120.72827,357.84741,7.04819,533.538,-16.4373,19.182,68.6424,46.1268
1974-12-17 01:26:54,1,5.06831,-6.43028,-2.05352,0.640864,1,1,290155.0,102516.0,1622,0.98113817,-0.85819459,120.72241,357.84741,6.2493,527.887,-12.5403,23.6832,69.2107,41.1391
1974-12-17 01:27:35,1,5.45664,-7.00839,-1.16084,0.958006,1,1,262230.0,128842.0,1622,0.98113739,-0.85825551,120.71631,357.84717,6.87747,522.083,-16.6013,18.9818,65.7959,46.1197
1974-12-17 01:28:15,1,6.54296,-6.17746,-0.597887,0.881121,1,1,241168.0,104877.0,1622,0.98113668,-0.85831636,120.71021,357.84692,6.74864,523.876,-11.4527,23.2877,63.0984,41.61
1974-12-17 01:28:56,1,7.3403,-5.82836,0.0641791,0.70108,1,1,297560.0,127404.0,1622,0.98113668,-0.85831642,120.70435,357.84692,7.24702,524.412,-14.8797,23.6407,70.0883,45.8616
1974-12-17 01:29:36,1,8.03014,-3.30411,-2.72466,0.57312,1,1,282620.0,122950.0,1622,0.9811359,-0.85837734,120.69629,357.84668,7.04121,530.076,-9.91954,19.1228,68.3061,45.0529
1974-12-17 01:30:17,1,7.64336,-3.1035,-2.38881,1.00489,1,1,295214.0,129547.0,1622,0.98113519,-0.85843819,120.69043,357.84668,7.42591,533.174,-12.8824,17.3189,69.8114,46.2458
1974-12-17 01:30:57,1,6.78028,-4.40915,-0.250704,0.635886,1,1,214445.0,130762.0,1622,0.98113519,-0.85843825,120.68457,357.84668,6.70013,537.164,-13.483,16.1975,59.4998,46.462